Location: Kershaw
(34.5481°N, 80.5823°W)
Time: 15:47:36
(UTC+00:00)

Vanguard 1 Rocket - Pass Details

Date: 04 October 2022
Orbit: 650 x 4225 km, 34.3° (Epoch: 08 December)

Event Time Altitude Azimuth Distance (km) Brightness Sun altitude
Rises 21:43:12 0° 213° (SSW) 8,285 13.1 15.1°
Reaches altitude 10° 21:49:28 10° 207° (SSW) 7,394 12.8 13.9°
Maximum altitude 22:12:32 42° 145° (SE) 4,691 10.9 9.3°
Drops below altitude 10° 22:28:56 10° 82° (E) 5,462 10.7 6.0°
Sets 22:32:36 0° 76° (ENE) 6,061 10.9 5.2°
